Location: Ahstedt
(52.2048°N, 10.1060°E)
Time: 23:37:17
(UTC+00:00)

BREEZE-M DEB (TANK) - Pass Details

Date: 18 January 2026
Orbit: 290 x 14651 km, 49.5° (Epoch: 9 February)

Event Time Altitude Azimuth Distance (km) Brightness Sun altitude
Rises 03:20:02 0° 289° (WNW) 12,593 8.8 -35.8°
Enters shadow 03:21:24 - 289° (WNW) 12,246 8.7 -35.6°
Exits shadow 03:54:04 52° 214° (SW) 1,781 4.5 -30.7°
Drops below altitude 10° 03:58:51 10° 144° (SE) 2,359 5.9 -30.0°
Sets 04:00:19 0° 138° (SE) 2,918 6.5 -29.7°
